Starlink 6193

operational
NORAD ID: 56904 Int'l Des: 2023-083 Owner: SPXS Country: US Constellation: starlink
LEOCIRCULAR

Starlink 6193について

説明を読み込み中...

リアルタイム位置

3D地球を読み込み中...

次回通過

高度履歴

Altitude vs Time

uPlot chart will show altitude changes over time

軌道要素

1 56904U 23083AE 25303.62706504 -.00000189 00000-0 10698-5 0 9991
2 56904 43.0036 55.6660 0000746 277.4188 82.6570 15.02542599132257
Epoch: Oct 30, 2025 • Age: 27 hours

現在のステータス

高度 558.8 km
速度 7.58 km/s
衛星直下点 -0.58°S, 96.08°E
打ち上げ日 Jun 12, 2023
運用期間 2.3 years
タイプ internet

技術仕様

分類 Payload
質量 305.00 kg
乾燥質量 290.00 kg
総質量 305.00 kg
長さ 0.20 m
直径 2.80 m
スパン 9.00 m
形状 Box + pan
製造者 SPXS
バスタイプ Starlink
フェーズステータス In Orbit
所有者/国 SPXS/US

大規模コンステレーション

Loading constellations...